Terug naar catalogus

COSMOS 1275 DEB

ActiefPO
NORAD 19026·DEBRIS·🇷🇺 Russia

Gelanceerd Jun 4, 1981 vanaf Plesetsk Cosmodrome

Loading…

Volgende Passages (komende 24 uur)

TLE

VersSource: Space-Track

Epoch: Sep 12, 2026, 22:57 UTC

1 19026U 81053MD  26255.95669270  .00000967  00000-0  88476-3 0  9997
2 19026  83.1619  77.5452 0112510 209.0028 305.5681 13.79340418 63602

Volg COSMOS 1275 DEB in realtime met AllMySat

Download on the App Store